GW1618 Weather Reports


time (UTC)temp
C
wind
direction
speed
KPH
gust
KPH
rain 1hr
cm
rain 24hr
cm
rain mn
cm
humidity
%
barometer
mb
20260902060812 16 241 1.6 6.4 0.00 0.03 0.03 78 1009.2
20260902060006 16 181 3.2 6.4 0.00 0.03 0.03 77 1009.2
20260902055503 16 184 3.2 8.0 0.00 0.03 0.03 77 1009.3
20260902055003 16 176 4.8 9.7 0.00 0.03 0.03 77 1009.3
20260902054504 16 139 4.8 9.7 0.00 0.03 0.03 76 1009.3
20260902054002 16 164 6.4 11.3 0.00 0.03 0.03 76 1009.6
20260902053505 16 169 4.8 11.3 0.00 0.03 0.03 76 1009.6
20260902053005 16 182 4.8 9.7 0.00 0.03 0.03 76 1009.6
20260902052507 16 241 4.8 9.7 0.00 0.03 0.03 76 1009.6
20260902052007 16 205 4.8 9.7 0.00 0.03 0.03 76 1009.6
20260902051813 16 253 4.8 8.0 0.00 0.03 0.03 76 1009.6
20260902051004 16 196 6.4 11.3 0.00 0.03 0.03 75 1009.7
20260902050501 16 173 8.0 12.9 0.00 0.03 0.03 75 1009.7
20260902050228 16 215 6.4 14.5 0.00 0.03 0.03 74 1009.7
20260902045501 16 219 6.4 16.1 0.00 0.03 0.03 74 1009.6
20260902045007 16 220 6.4 16.1 0.00 0.03 0.03 74 1009.6
20260902044502 16 188 4.8 11.3 0.00 0.03 0.03 74 1009.6
20260902044001 16 206 3.2 11.3 0.00 0.03 0.03 74 1009.6
20260902043503 16 244 3.2 9.7 0.00 0.03 0.03 74 1009.6
20260902043001 16 250 3.2 6.4 0.00 0.03 0.03 74 1009.6
20260902042501 16 275 3.2 6.4 0.00 0.03 0.03 74 1009.7
20260902042003 16 238 3.2 6.4 0.00 0.03 0.03 74 1009.7
20260902041507 16 242 3.2 6.4 0.00 0.03 0.03 74 1009.7
20260902041006 16 252 1.6 4.8 0.00 0.03 0.03 74 1009.6
20260902040817 16 281 3.2 6.4 0.00 0.03 0.03 74 1009.6
20260902040004 16 290 3.2 6.4 0.00 0.03 0.03 74 1009.6
20260902035501 16 273 3.2 6.4 0.00 0.03 0.03 74 1009.5
20260902035003 16 281 3.2 6.4 0.00 0.03 0.03 73 1009.5
20260902034501 16 261 3.2 4.8 0.00 0.03 0.03 74 1009.5
20260902034006 16 261 3.2 6.4 0.00 0.03 0.03 74 1009.5
20260902033556 16 305 4.8 8.0 0.00 0.03 0.03 74 1009.5
20260902032820 17 308 3.2 8.0 0.00 0.03 0.03 74 1009.4
20260902031504 17 330 3.2 6.4 0.00 0.03 0.03 72 1009.4
20260902031005 17 291 4.8 9.7 0.00 0.03 0.03 72 1009.3
20260902030504 17 245 4.8 9.7 0.00 0.03 0.03 72 1009.3
20260902030009 17 238 4.8 9.7 0.00 0.03 0.03 72 1009.3
20260902025801 17 217 4.8 9.7 0.00 0.03 0.03 72 1009.3
20260902025000 17 185 4.8 8.0 0.00 0.03 0.03 71 1009.3
20260902024506 17 204 6.4 11.3 0.00 0.03 0.03 71 1009.3
20260902024005 17 240 6.4 11.3 0.00 0.03 0.03 70 1009.2
20260902023507 17 263 6.4 11.3 0.00 0.03 0.03 70 1009.2
20260902023001 17 272 6.4 14.5 0.00 0.03 0.03 70 1009.2
20260902022756 17 221 6.4 14.5 0.00 0.03 0.03 71 1009.4
20260902021947 17 186 6.4 11.3 0.00 0.03 0.03 72 1009.4
20260902021439 17 217 4.8 11.3 0.00 0.03 0.03 71 1009.4
20260902020936 17 243 4.8 11.3 0.00 0.03 0.03 72 1009.6
20260902020439 17 192 4.8 11.3 0.00 0.03 0.03 72 1009.6
20260902015936 17 189 4.8 9.7 0.00 0.03 0.03 72 1009.6
20260902015436 17 224 4.8 9.7 0.00 0.03 0.03 72 1009.5
20260902014937 17 228 4.8 11.3 0.00 0.03 0.03 72 1009.5
20260902014435 17 193 4.8 11.3 0.00 0.03 0.03 72 1009.5
20260902014253 17 178 6.4 11.3 0.00 0.03 0.03 72 1009.3
20260902013750 17 192 6.4 11.3 0.00 0.03 0.03 72 1009.3
20260902013249 17 171 4.8 9.7 0.00 0.03 0.03 71 1009.3
20260902012438 17 163 4.8 8.0 0.00 0.03 0.03 71 1009.3
20260902011934 17 201 4.8 9.7 0.00 0.03 0.03 70 1009.3
20260902011430 17 179 6.4 14.5 0.00 0.03 0.03 69 1009.3
20260902010947 18 178 6.4 14.5 0.00 0.03 0.03 69 1009.2
20260902005937 18 209 9.7 22.5 0.00 0.03 0.03 68 1009.2
20260902005434 18 235 12.9 30.6 0.00 0.03 0.03 68 1009.3
20260902004928 18 216 9.7 30.6 0.00 0.03 0.03 68 1009.3
20260902004423 18 207 8.0 16.1 0.00 0.03 0.03 68 1009.3
20260902003953 18 304 8.0 16.1 0.00 0.03 0.03 67 1009.1
20260902002855 18 173 8.0 17.7 0.00 0.03 0.03 68 1009.1
20260902002355 18 167 8.0 16.1 0.00 0.03 0.03 68 1009.2
20260902001856 18 180 8.0 16.1 0.00 0.03 0.03 69 1009.2
20260902001400 18 209 6.4 16.1 0.00 0.03 0.03 68 1009.2
20260902000855 18 208 6.4 17.7 0.00 0.03 0.03 68 1009.2
20260902000356 18 190 8.0 17.7 0.00 0.03 0.03 69 1009.2
20260901235849 18 178 8.0 16.1 0.00 0.03 0.03 69 1009.2
20260901235348 18 201 8.0 16.1 0.00 0.03 0.03 68 1009.3
20260901234849 18 202 8.0 19.3 0.00 0.03 0.03 68 1009.3
20260901234347 18 180 8.0 19.3 0.00 0.03 0.03 67 1009.3
20260901233846 18 240 9.7 22.5 0.00 0.03 0.03 66 1009.3
20260901233346 18 198 9.7 22.5 0.00 0.03 0.03 66 1009.3
20260901232845 18 229 9.7 19.3 0.00 0.03 0.03 65 1009.3
20260901232347 18 245 9.7 19.3 0.00 0.03 0.03 66 1009.2
20260901231844 18 237 9.7 19.3 0.00 0.03 0.03 65 1009.2
20260901231343 18 238 9.7 19.3 0.00 0.03 0.03 65 1009.2
20260901230843 18 227 8.0 17.7 0.00 0.03 0.03 68 1009.2
20260901230346 18 224 9.7 19.3 0.00 0.03 0.03 69 1009.2
20260901225841 18 228 12.9 20.9 0.00 0.03 0.03 72 1009.2
20260901225337 18 206 11.3 20.9 0.00 0.03 0.03 71 1009.2
20260901224822 18 233 11.3 20.9 0.00 0.03 0.03 70 1009.2
20260901224640 18 181 11.3 20.9 0.00 0.03 0.03 72 1009.2
20260901223810 18 186 8.0 19.3 0.00 0.03 0.03 72 1009.3
20260901223307 17 194 4.8 19.3 0.03 0.03 0.03 75 1009.3
20260901222750 17 236 4.8 11.3 0.03 0.03 0.03 79 1009.3
20260901222249 18 271 3.2 11.3 0.03 0.03 0.03 76 1009.3
20260901221739 17 157 1.6 6.4 0.03 0.03 0.03 78 1009.3
20260901221232 17 238 3.2 6.4 0.03 0.03 0.03 78 1009.3
20260901221047 17 233 1.6 6.4 0.03 0.03 0.03 78 1009.5
20260901220531 17 202 3.2 6.4 0.03 0.03 0.03 79 1009.5
20260901215707 17 254 4.8 8.0 0.03 0.03 0.03 79 1009.5
20260901215215 17 223 3.2 8.0 0.03 0.03 0.03 79 1009.7
20260901214707 17 185 4.8 9.7 0.03 0.03 0.03 80 1009.7
20260901214250 17 224 3.2 9.7 0.03 0.03 0.03 79 1009.7
20260901213202 17 348 6.4 11.3 0.00 0.00 0.00 78 1009.5
20260901212707 16 14 9.7 16.1 0.00 0.00 0.00 78 1009.5
20260901212206 17 359 9.7 16.1 0.00 0.00 0.00 78 1009.6
20260901212025 17 4 9.7 16.1 0.00 0.00 0.00 77 1009.6
20260901211517 17 15 6.4 11.3 0.00 0.00 0.00 74 1009.6
20260901210712 17 308 4.8 14.5 0.00 0.00 0.00 72 1009.7
20260901210208 17 152 4.8 14.5 0.00 0.00 0.00 71 1009.7
20260901210019 17 173 6.4 11.3 0.00 0.00 0.00 71 1009.7
20260901205202 17 181 8.0 16.1 0.00 0.00 0.00 72 1009.7
20260901204701 17 204 8.0 16.1 0.00 0.00 0.00 71 1009.7
20260901204202 17 247 8.0 16.1 0.00 0.00 0.00 72 1009.7
20260901204014 17 208 8.0 19.3 0.00 0.00 0.00 71 1009.7
20260901203201 17 219 8.0 19.3 0.00 0.00 0.00 71 1009.7
20260901202712 17 223 8.0 22.5 0.00 0.00 0.00 71 1009.7
20260901202203 17 265 8.0 22.5 0.00 0.00 0.00 71 1009.7
20260901201700 17 204 8.0 17.7 0.00 0.00 0.00 71 1009.7
20260901201157 17 233 8.0 16.1 0.00 0.00 0.00 70 1009.7
20260901200655 17 241 9.7 19.3 0.00 0.00 0.00 70 1009.7
20260901200139 17 227 12.9 22.5 0.00 0.00 0.00 70 1009.7
20260901195639 18 213 11.3 22.5 0.00 0.00 0.00 70 1009.7
20260901195135 18 213 8.0 17.7 0.00 0.00 0.00 68 1009.7
20260901194626 18 236 8.0 17.7 0.00 0.00 0.00 67 1009.7
20260901194427 18 264 8.0 16.1 0.00 0.00 0.00 67 1009.7
20260901193612 18 235 8.0 20.9 0.00 0.00 0.00 67 1009.7
20260901193115 18 209 6.4 20.9 0.00 0.00 0.00 66 1009.7
20260901192614 18 199 8.0 19.3 0.00 0.00 0.00 67 1009.7
20260901192201 18 264 9.7 19.3 0.00 0.00 0.00 67 1009.7
20260901191111 18 235 11.3 25.7 0.00 0.00 0.00 66 1009.7
20260901190611 18 238 9.7 25.7 0.00 0.00 0.00 66 1009.7
20260901190106 18 226 8.0 22.5 0.00 0.00 0.00 66 1009.7
20260901185607 18 225 8.0 22.5 0.00 0.00 0.00 68 1009.7
20260901185105 18 171 9.7 25.7 0.00 0.00 0.00 67 1009.7
20260901184606 18 244 11.3 25.7 0.00 0.00 0.00 66 1009.7
20260901184105 18 206 9.7 22.5 0.00 0.00 0.00 66 1009.7
20260901183604 18 171 6.4 16.1 0.00 0.00 0.00 67 1009.7
20260901183106 18 227 6.4 16.1 0.00 0.00 0.00 66 1009.7
20260901182905 18 248 8.0 16.1 0.00 0.00 0.00 68 1009.7
20260901182107 18 235 8.0 16.1 0.00 0.00 0.00 68 1009.7
20260901181606 18 248 8.0 16.1 0.00 0.00 0.00 67 1009.7
20260901181105 18 246 8.0 17.7 0.00 0.00 0.00 67 1009.5
20260901180600 18 226 9.7 20.9 0.00 0.00 0.00 68 1009.5
20260901180321 18 226 9.7 20.9 0.00 0.00 0.00 68 1009.5
20260901180058 18 226 9.7 20.9 0.00 0.00 0.00 68 1009.5
20260901175547 18 182 6.4 16.1 0.00 0.00 0.00 68 1009.4
20260901175046 18 219 6.4 14.5 0.00 0.00 0.00 68 1009.4
20260901174542 18 196 8.0 14.5 0.00 0.00 0.00 69 1009.4
20260901174042 17 162 8.0 19.3 0.00 0.00 0.00 70 1009.5
20260901173837 17 170 9.7 19.3 0.00 0.00 0.00 71 1009.5
20260901173301 17 219 9.7 17.7 0.00 0.00 0.00 70 1009.5
20260901173038 17 219 9.7 17.7 0.00 0.00 0.00 70 1009.5
20260901172536 17 192 8.0 17.7 0.00 0.00 0.00 71 1009.5
20260901172033 17 185 8.0 19.3 0.00 0.00 0.00 72 1009.5
20260901171534 17 213 8.0 19.3 0.00 0.00 0.00 71 1009.5
20260901171033 17 229 9.7 17.7 0.00 0.00 0.00 72 1009.3
20260901170800 17 235 9.7 19.3 0.00 0.00 0.00 71 1009.3
20260901170037 17 226 8.0 19.3 0.00 0.00 0.00 70 1009.3
20260901165837 17 186 8.0 24.1 0.00 0.00 0.00 70 1009.4
20260901165031 17 217 8.0 24.1 0.00 0.00 0.00 71 1009.4
20260901164833 17 181 9.7 19.3 0.00 0.00 0.00 72 1009.4
20260901164037 17 199 8.0 19.3 0.00 0.00 0.00 72 1009.4
20260901163529 17 169 8.0 16.1 0.00 0.00 0.00 72 1009.4
20260901163029 17 197 9.7 16.1 0.00 0.00 0.00 73 1009.4
20260901162837 17 152 9.7 16.1 0.00 0.00 0.00 73 1009.5
20260901162328 17 221 9.7 19.3 0.00 0.00 0.00 73 1009.5
20260901161529 17 227 8.0 19.3 0.00 0.00 0.00 72 1009.5
20260901161019 17 222 8.0 16.1 0.00 0.00 0.00 73 1009.6
20260901160513 17 238 9.7 20.9 0.00 0.00 0.00 73 1009.6
20260901160007 17 254 9.7 20.9 0.00 0.00 0.00 73 1009.6
20260901155501 17 257 6.4 17.7 0.00 0.00 0.00 74 1009.6
20260901154956 17 269 6.4 12.9 0.00 0.00 0.00 75 1009.6
20260901154453 16 250 8.0 12.9 0.00 0.00 0.00 76 1009.6
20260901153946 16 207 8.0 12.9 0.00 0.00 0.00 77 1009.7
20260901153437 16 227 8.0 19.3 0.00 0.00 0.00 77 1009.7
20260901152931 16 174 6.4 16.1 0.00 0.00 0.00 79 1009.7
20260901152431 16 207 4.8 11.3 0.00 0.00 0.00 80 1009.7
20260901151930 15 191 1.6 6.4 0.00 0.00 0.00 82 1009.7
20260901151435 15 111 1.6 4.8 0.00 0.00 0.00 83 1009.7
20260901150907 15 59 1.6 3.2 0.00 0.00 0.00 84 1009.7
20260901150401 15 13 1.6 4.8 0.00 0.00 0.00 85 1009.7
20260901145859 14 42 1.6 4.8 0.00 0.00 0.00 86 1009.7
20260901145345 14 48 1.6 3.2 0.00 0.00 0.00 86 1009.6
20260901144848 14 136 1.6 1.6 0.00 0.00 0.00 86 1009.6
20260901144625 13 136 1.6 1.6 0.00 0.00 0.00 86 1009.6
20260901144323 13 136 0.0 1.6 0.00 0.00 0.00 87 1009.5
20260901143332 13 202 1.6 3.2 0.00 0.00 0.00 87 1009.5
20260901142831 13 202 1.6 4.8 0.00 0.00 0.00 87 1009.5
20260901142629 13 198 3.2 4.8 0.00 0.00 0.00 87 1009.6
20260901142232 13 225 3.2 4.8 0.00 0.00 0.00 87 1009.6
20260901141334 13 187 3.2 6.4 0.00 0.00 0.00 87 1009.6
20260901140837 13 186 3.2 6.4 0.00 0.00 0.00 87 1009.4
20260901140651 13 211 3.2 6.4 0.00 0.00 0.00 87 1009.4
20260901135843 13 266 3.2 6.4 0.00 0.00 0.00 87 1009.4
20260901135327 13 245 3.2 8.0 0.00 0.00 0.00 87 1009.3
20260901134826 13 221 3.2 8.0 0.00 0.00 0.00 87 1009.3
20260901134322 13 225 3.2 6.4 0.00 0.00 0.00 87 1009.3
20260901133824 13 243 3.2 6.4 0.00 0.00 0.00 87 1009.3
20260901133319 13 236 3.2 8.0 0.00 0.00 0.00 87 1009.3
20260901132927 13 201 4.8 8.0 0.00 0.00 0.00 87 1009.3
20260901131811 13 221 1.6 6.4 0.00 0.00 0.00 86 1009.3
20260901131309 13 247 3.2 8.0 0.00 0.00 0.00 86 1009.3
20260901130809 13 229 3.2 8.0 0.00 0.00 0.00 86 1009.4
20260901130304 13 238 3.2 8.0 0.00 0.00 0.00 86 1009.4
20260901130123 13 269 3.2 4.8 0.00 0.00 0.00 86 1009.4
20260901125309 13 246 1.6 3.2 0.00 0.00 0.00 85 1009.2
20260901124808 13 269 1.6 3.2 0.00 0.00 0.00 85 1009.2
20260901124309 13 248 1.6 3.2 0.00 0.00 0.00 85 1009.2
20260901123801 13 204 1.6 3.2 0.00 0.00 0.00 85 1009.2
20260901123620 13 220 3.2 6.4 0.00 0.00 0.00 85 1009.2
20260901122803 13 233 3.2 6.4 0.00 0.00 0.00 85 1009.2
20260901122307 13 220 1.6 4.8 0.00 0.00 0.00 85 1009.2
20260901121809 13 243 1.6 4.8 0.00 0.00 0.00 84 1009.2
20260901121304 13 224 1.6 3.2 0.00 0.00 0.00 84 1009.2
20260901120803 13 209 1.6 3.2 0.00 0.00 0.00 84 1009.1
20260901120302 13 246 1.6 4.8 0.00 0.00 0.00 84 1009.1
20260901115805 13 240 1.6 4.8 0.00 0.00 0.00 83 1009.1
20260901115308 13 182 1.6 3.2 0.00 0.00 0.00 83 1009.1
20260901114803 13 182 1.6 4.8 0.00 0.00 0.00 84 1009.1
20260901114537 13 219 1.6 4.8 0.00 0.00 0.00 84 1009.1
20260901113808 13 179 1.6 3.2 0.00 0.00 0.00 84 1009.0
20260901113315 13 269 1.6 1.6 0.00 0.00 0.00 84 1009.0
20260901112812 13 269 0.0 1.6 0.00 0.00 0.00 84 1009.0
20260901112256 13 269 0.0 1.6 0.00 0.00 0.00 84 1008.9
20260901111744 13 269 0.0 1.6 0.00 0.00 0.00 83 1008.9
20260901111246 13 269 0.0 0.0 0.00 0.00 0.00 83 1008.9
20260901111156 13 269 0.0 0.0 0.00 0.00 0.00 83 1008.7
20260901105735 13 269 0.0 1.6 0.00 0.00 0.00 82 1008.7
20260901105208 13 269 0.0 1.6 0.00 0.00 0.00 82 1008.7
20260901104950 13 269 1.6 3.2 0.00 0.00 0.00 82 1008.7
20260901104201 13 269 1.6 3.2 0.00 0.00 0.00 82 1008.7
20260901103705 13 225 1.6 3.2 0.00 0.00 0.00 82 1008.7
20260901103201 13 226 1.6 4.8 0.00 0.00 0.00 82 1008.7
20260901102703 13 204 1.6 4.8 0.00 0.00 0.00 82 1008.7
20260901102202 13 234 1.6 3.2 0.00 0.00 0.00 81 1008.6
20260901101702 14 234 1.6 4.8 0.00 0.00 0.00 81 1008.6
20260901101202 14 238 1.6 4.8 0.00 0.00 0.00 81 1008.6
20260901100714 14 244 0.0 3.2 0.00 0.00 0.00 81 1008.4
20260901100159 14 242 1.6 1.6 0.00 0.00 0.00 80 1008.4
20260901095634 14 242 0.0 1.6 0.00 0.00 0.00 80 1008.2
20260901095145 14 242 0.0 1.6 0.00 0.00 0.00 80 1008.2
20260901094631 14 242 1.6 3.2 0.00 0.00 0.00 80 1008.2
20260901094415 14 242 1.6 3.2 0.00 0.00 0.00 80 1008.3
20260901093629 14 242 1.6 3.2 0.00 0.00 0.00 80 1008.3
20260901093138 14 242 0.0 1.6 0.00 0.00 0.00 80 1008.3
20260901092633 14 242 0.0 1.6 0.00 0.00 0.00 79 1008.3
20260901092135 15 245 1.6 3.2 0.00 0.00 0.00 78 1008.3
20260901091637 15 245 1.6 3.2 0.00 0.00 0.00 78 1008.3
20260901091427 15 227 1.6 3.2 0.00 0.00 0.00 78 1008.5
20260901090622 15 243 3.2 6.4 0.00 0.00 0.00 78 1008.5
20260901090121 15 220 3.2 6.4 0.00 0.00 0.00 78 1008.5
20260901085620 15 244 1.6 4.8 0.00 0.00 0.00 79 1008.5
20260901085117 15 245 1.6 3.2 0.00 0.00 0.00 79 1008.5
20260901084619 15 226 0.0 3.2 0.00 0.00 0.00 79 1008.5
20260901084415 15 140 0.0 3.2 0.00 0.00 0.00 78 1008.2
20260901083618 15 136 0.0 3.2 0.00 0.00 0.00 78 1008.2
20260901083105 15 29 0.0 0.0 0.00 0.00 0.00 76 1008.2
20260901082558 15 29 0.0 1.6 0.00 0.00 0.00 76 1008.2
20260901082044 15 29 0.0 1.6 0.00 0.00 0.00 77 1008.2
20260901081539 15 29 0.0 1.6 0.00 0.00 0.00 77 1008.2
20260901081037 15 29 0.0 1.6 0.00 0.00 0.00 76 1008.2
20260901080537 15 29 0.0 1.6 0.00 0.00 0.00 75 1008.2
20260901080037 15 29 0.0 1.6 0.00 0.00 0.00 75 1008.2
20260901075550 15 29 1.6 3.2 0.00 0.00 0.00 74 1008.1
20260901075032 15 29 1.6 3.2 0.00 0.00 0.00 76 1008.1
20260901074533 15 29 1.6 3.2 0.00 0.00 0.00 74 1008.1
20260901074035 15 273 1.6 1.6 0.00 0.00 0.00 74 1008.1
20260901073516 16 225 1.6 1.6 0.00 0.00 0.00 76 1008.1
20260901073014 16 225 0.0 1.6 0.00 0.00 0.00 73 1008.1
20260901072519 16 207 0.0 3.2 0.00 0.00 0.00 73 1008.1
20260901072330 16 207 0.0 3.2 0.00 0.00 0.00 73 1008.1
20260901071013 16 213 1.6 4.8 0.00 0.00 0.00 71 1007.8
20260901070512 16 359 1.6 3.2 0.00 0.00 0.00 71 1007.8
20260901070009 16 359 1.6 3.2 0.00 0.00 0.00 71 1007.8
20260901065506 16 359 1.6 3.2 0.00 0.00 0.00 72 1007.7
20260901065113 16 359 0.0 1.6 0.00 0.00 0.00 72 1007.7
20260901063951 16 359 0.0 0.0 0.00 0.00 0.00 70 1007.7
20260901063433 16 359 0.0 1.6 0.00 0.00 0.00 71 1007.7
20260901063234 16 359 1.6 1.6 0.00 0.00 0.00 71 1007.7
20260901062411 16 359 1.6 3.2 0.00 0.00 0.00 69 1007.7
20260901061910 16 359 1.6 3.2 0.00 0.00 0.00 68 1007.7
20260901061403 16 359 3.2 4.8 0.00 0.00 0.00 70 1007.7